[[{"header":{"parameterUnit":"m.s-1","parameterCategory":1,"la1":30.2991,"la2":30.254,"lo1":-89.0895,"lo2":-89.0444,"dy":0.0017,"dx":0.0017,"nx":28,"ny":28,"refTime":"2023-07-31T03:00:00:Z","depth":0,"parameterNumber":2,"parameterNumberName":"U-component_of_WINDS"},"data":[0,0,0,0,0,0,0,0,0,0,0,0,0,0,0,0,0,0,0,0,0,0,0,0,0,0,0,0,0,0,0,0,0,0,0,0,0,0,0,0,0,0,0,0,0,0,0,0,0,0,0,0,0,0,0,0,0,0,2.53,2.5301,0,2.5382,2.5383,2.5384,2.537,2.5369,2.5367,2.5366,2.545,2.5454,2.5457,0,0,0,0,0,0,0,0,0,0,0,0,0,2.5134,2.5137,2.53,2.5301,2.5302,2.5382,2.5383,2.5384,2.537,2.5369,2.5367,2.5365,2.5449,2.5453,2.5457,0,0,0,0,0,0,0,0,0,0,0,0,0,2.521,2.5138,2.53,2.5305,2.5306,2.5381,2.5383,2.5384,2.5371,2.5368,2.5366,2.5364,2.5448,2.5453,2.5458,2.5534,0,0,2.5474,2.5477,0,0,0,0,0,0,0,0,2.5206,2.5216,2.5303,2.5305,2.5306,2.5364,2.5355,2.5434,2.5371,2.5346,2.5366,2.5363,2.5423,2.543,2.545,2.5538,2.5541,2.5475,2.5478,2.548,2.5482,0,0,0,0,0,0,0,2.52,2.5212,2.5333,2.5305,2.5307,2.5304,2.5312,2.537,2.5396,2.5348,2.5347,2.5357,2.5424,2.5445,2.5452,2.5542,2.5475,2.5479,2.5483,2.5485,2.5695,2.5697,0,0,0,0,0,0,2.5193,2.5208,2.533,2.5335,2.525,2.5308,2.5318,2.5347,2.5395,2.54,2.5359,2.5356,2.5437,2.5446,2.5455,2.5545,2.548,2.5485,2.5488,2.5693,2.5696,2.5698,0,0,0,0,0,0,2.519,2.5204,2.5327,2.5271,2.5287,2.5313,2.5347,2.535,2.5372,2.5403,2.5408,2.5376,2.5436,2.5448,2.5514,2.5548,2.5488,2.5493,2.569,2.5694,2.5697,2.5727,0,0,0,0,0,0,2.5185,2.5203,2.5232,2.5272,2.529,2.5384,2.5349,2.5353,2.5381,2.5378,2.542,2.5425,2.5435,2.5506,2.5519,2.5554,2.5497,2.5687,2.5692,2.5696,2.5723,2.5731,2.5738,0,0,0,0,0,2.5179,2.5237,2.5233,2.5248,2.5326,2.5386,2.5396,2.5405,2.5384,2.5413,2.5433,2.5424,2.5543,2.5513,2.5528,2.5565,2.5685,2.569,2.5695,2.572,2.573,2.5738,0,0,0,0,0,0,2.52,2.5243,2.5239,2.5312,2.5345,2.5383,2.542,2.5416,2.5456,2.5452,2.5463,2.5473,2.5539,2.5559,2.5525,2.564,2.5611,2.5619,2.5624,2.5634,2.5641,2.5634,2.5501,0,0,0,0,0,2.5214,2.5258,2.5293,2.5354,2.5371,2.5393,2.5419,2.5424,2.5459,2.5473,2.5499,2.5533,2.5578,2.5608,2.5651,2.5727,2.5736,2.576,2.5768,2.5774,2.578,2.5821,2.5832,2.5716,2.5716,2.5716,0,0,2.5241,2.527,2.5297,2.5359,2.5386,2.5432,2.5405,2.5455,2.5489,2.5481,2.5544,2.5565,2.5604,2.5675,2.5708,2.5694,2.5815,2.5781,2.5785,2.5788,2.5827,2.5838,2.5848,2.5719,2.5719,2.5718,0,0,2.5314,2.5341,2.5394,2.5421,2.5462,2.5476,2.5489,2.5529,2.5541,2.5605,2.56,2.5642,2.5719,2.5747,2.5772,2.5857,2.585,2.5871,2.591,2.5949,2.5958,2.5966,2.5995,2.6005,2.5878,2.5878,2.5878,0,2.5343,2.5411,2.5422,2.5472,2.5499,2.5495,2.5549,2.5575,2.5628,2.5647,2.5631,2.5728,2.5755,2.5831,2.5852,2.5873,2.5887,2.5865,2.5956,2.5964,2.5972,2.5999,2.601,2.5881,2.588,2.588,2.588,0,2.5444,2.5492,2.553,2.5581,2.5613,2.5665,2.5683,2.5715,2.5717,2.5733,2.5798,2.5831,2.588,2.5899,2.5902,2.5977,2.5967,2.5954,2.5923,2.5985,2.6011,2.6022,2.5884,2.5883,2.5882,2.5882,0,0,2.553,2.5587,2.56,2.5623,2.5668,2.5706,2.5758,2.5806,2.5832,2.587,2.5913,2.5979,2.5967,2.5995,2.6002,2.6037,2.61,2.6019,2.602,2.6031,2.6183,2.619,2.6202,2.6097,2.6099,2.6101,2.6179,0,2.5605,2.5696,2.5708,2.5789,2.5833,2.583,2.5876,2.5909,2.5926,2.5966,2.5985,2.6031,2.6013,2.6029,2.6064,2.6085,2.613,2.608,2.6136,2.6138,2.6124,2.6216,2.6224,2.6296,2.6189,2.6191,2.6192,0,2.5705,2.5744,2.5829,2.5868,2.5887,2.5928,2.5973,2.6012,2.6049,2.6059,2.6091,2.6093,2.6147,2.6117,2.6191,2.6157,2.6181,2.6195,2.6198,2.6202,2.6167,2.622,2.6319,2.6329,2.6208,2.6207,2.6206,0,2.5756,2.5831,2.5891,2.5911,2.5959,2.5987,2.6009,2.6044,2.6072,2.6112,2.6131,2.6177,2.6201,2.6237,2.6252,2.6229,2.6325,2.6296,2.6333,2.6333,2.6351,2.6349,2.6453,2.6371,2.6371,2.6371,2.6371,0,2.5837,2.5889,2.5915,2.5952,2.601,2.6023,2.608,2.6101,2.6133,2.6173,2.6175,2.6214,2.6232,2.6273,2.6286,2.6345,2.6356,2.6365,2.6367,2.6364,2.6362,2.6377,2.6372,2.6374,2.6373,2.6373,2.6372,0,2.5902,2.5922,2.5988,2.6028,2.604,2.608,2.6115,2.6151,2.6168,2.622,2.6233,2.626,2.6309,2.6328,2.6388,2.6396,2.6463,2.6463,2.645,2.645,2.6485,2.6481,2.6601,2.6616,2.6526,2.6527,2.6528,0,2.5951,2.5991,2.6036,2.6063,2.6085,2.613,2.6159,2.6174,2.6204,2.6251,2.6281,2.633,2.6369,2.6447,2.6472,2.6518,2.6517,2.6556,2.6524,2.6518,2.6515,2.6511,2.6515,2.6561,2.6562,2.6563,2.6563,0,2.6036,2.6044,2.6085,2.613,2.6165,2.6201,2.6236,2.6259,2.628,2.6314,2.6364,2.6394,2.6456,2.6504,2.6551,2.6573,2.6571,2.6574,2.6584,2.6579,2.6569,2.6573,2.6463,2.657,2.657,2.6569,2.6569,2.6568,2.6093,2.6128,2.6165,2.6211,2.6239,2.6272,2.6308,2.633,2.6372,2.6422,2.643,2.6483,2.652,2.6583,2.6608,2.6649,2.6639,2.6655,2.6658,2.6661,2.6663,2.6565,2.6658,2.6658,2.6658,2.6658,2.6658,0,2.6175,2.6199,2.6242,2.6291,2.6327,2.6324,2.6363,2.6394,2.644,2.6475,2.6514,2.6571,2.6618,2.6648,2.6695,2.6723,2.6723,2.6734,2.6731,2.6736,2.667,2.6655,2.6733,2.6733,2.6733,2.6733,2.6733,2.6733,2.6222,2.628,2.6293,2.6366,2.639,2.6441,2.6464,2.6494,2.6522,2.6586,2.6624,2.6644,2.6677,2.6726,2.6769,2.6777,2.6793,2.6804,2.6811,2.6748,2.6741,2.6733,2.6719,2.6809,2.6809,2.6873,2.6873,2.6874]},{"header":{"parameterUnit":"m.s-1","parameterCategory":1,"la1":30.2991,"la2":30.254,"lo1":-89.0895,"lo2":-89.0444,"dy":0.0017,"dx":0.0017,"nx":28,"ny":28,"refTime":"2023-07-31T03:00:00:Z","depth":0,"parameterNumber":3,"parameterNumberName":"V-component_of_WINDS"},"data":[0,0,0,0,0,0,0,0,0,0,0,0,0,0,0,0,0,0,0,0,0,0,0,0,0,0,0,0,0,0,0,0,0,0,0,0,0,0,0,0,0,0,0,0,0,0,0,0,0,0,0,0,0,0,0,0,0,0,2.8248,2.8248,0,2.8221,2.822,2.822,2.8151,2.815,2.8149,2.8147,2.812,2.8121,2.8121,0,0,0,0,0,0,0,0,0,0,0,0,0,2.8241,2.8241,2.8248,2.8248,2.8247,2.8221,2.822,2.822,2.8152,2.815,2.8148,2.8147,2.812,2.8121,2.8121,0,0,0,0,0,0,0,0,0,0,0,0,0,2.8232,2.8241,2.8248,2.821,2.8206,2.8221,2.822,2.822,2.8152,2.815,2.8148,2.8146,2.812,2.812,2.8121,2.8171,0,0,2.8124,2.8125,0,0,0,0,0,0,0,0,2.8232,2.8232,2.8216,2.8213,2.8209,2.8187,2.8208,2.8203,2.8153,2.8173,2.8147,2.8145,2.8144,2.8143,2.8143,2.8169,2.8168,2.8124,2.8125,2.8125,2.8126,0,0,0,0,0,0,0,2.8233,2.8233,2.8237,2.8216,2.8211,2.8194,2.8191,2.8206,2.8171,2.8171,2.8166,2.8163,2.8142,2.8142,2.8141,2.8168,2.8124,2.8125,2.8126,2.8126,2.8232,2.8234,0,0,0,0,0,0,2.8239,2.8234,2.8238,2.8236,2.8215,2.8196,2.8192,2.8196,2.8171,2.8165,2.8165,2.816,2.8141,2.814,2.814,2.8195,2.8125,2.8126,2.8127,2.823,2.8232,2.8235,0,0,0,0,0,0,2.8239,2.824,2.8239,2.8234,2.8232,2.8199,2.8204,2.8197,2.8197,2.8166,2.816,2.8172,2.814,2.8139,2.8163,2.8193,2.8127,2.8127,2.8227,2.8231,2.8234,2.8306,0,0,0,0,0,0,2.8239,2.8241,2.8259,2.8235,2.8233,2.8263,2.8206,2.8198,2.8199,2.8192,2.8171,2.8165,2.8138,2.8162,2.8164,2.8193,2.8128,2.8224,2.8229,2.8233,2.8301,2.8312,2.8321,0,0,0,0,0,2.8239,2.8281,2.826,2.8261,2.8255,2.8265,2.8264,2.8231,2.8201,2.8219,2.82,2.8166,2.819,2.8165,2.8167,2.8197,2.8222,2.8227,2.8232,2.8297,2.831,2.8321,0,0,0,0,0,0,2.8311,2.8277,2.8254,2.8289,2.828,2.8253,2.8275,2.8246,2.8245,2.8239,2.8199,2.8194,2.8224,2.8213,2.8186,2.8242,2.82,2.8206,2.8249,2.8261,2.8271,2.8273,2.8129,0,0,0,0,0,2.8331,2.8341,2.8311,2.8345,2.8342,2.8309,2.8312,2.8288,2.8277,2.8273,2.8255,2.8246,2.8251,2.8255,2.8258,2.8299,2.8293,2.832,2.833,2.8339,2.8344,2.8364,2.8376,2.8252,2.8251,2.8251,0,0,2.8372,2.8355,2.8364,2.8359,2.8349,2.8361,2.8307,2.8321,2.8329,2.8275,2.8297,2.8283,2.827,2.8303,2.8316,2.8294,2.8377,2.8345,2.8352,2.8353,2.837,2.8382,2.8393,2.8255,2.8254,2.8254,0,0,2.8452,2.8441,2.8467,2.8458,2.8444,2.8422,2.8428,2.8405,2.8394,2.8415,2.8374,2.8383,2.8393,2.8385,2.8383,2.8459,2.8428,2.8461,2.8513,2.8533,2.8543,2.8551,2.8578,2.8588,2.8467,2.8467,2.8467,0,2.8505,2.8521,2.8485,2.8501,2.85,2.8451,2.8477,2.847,2.8458,2.8458,2.8433,2.8444,2.8432,2.8462,2.848,2.848,2.8486,2.8463,2.8544,2.8552,2.856,2.8585,2.8595,2.8471,2.847,2.847,2.847,0,2.8586,2.8598,2.8621,2.8609,2.861,2.8632,2.8599,2.8604,2.858,2.856,2.8582,2.8565,2.8564,2.8569,2.8545,2.8595,2.8582,2.8551,2.8508,2.8576,2.8599,2.8608,2.8477,2.8475,2.8474,2.8473,0,0,2.8712,2.8679,2.8688,2.8682,2.8662,2.867,2.8689,2.8687,2.8692,2.8685,2.87,2.8709,2.868,2.8678,2.8652,2.867,2.8731,2.8637,2.8636,2.8655,2.8784,2.8807,2.8819,2.871,2.8711,2.8713,2.8785,0,2.8787,2.8817,2.8785,2.8822,2.8832,2.8784,2.8801,2.879,2.8772,2.8778,2.8758,2.8765,2.8727,2.8725,2.874,2.872,2.8756,2.8714,2.8723,2.8724,2.8728,2.883,2.8855,2.8924,2.8794,2.8795,2.8796,0,2.8879,2.8876,2.8914,2.889,2.8893,2.8908,2.8903,2.8909,2.8896,2.8882,2.8878,2.8847,2.8864,2.8822,2.8844,2.8817,2.8818,2.8809,2.8811,2.881,2.8764,2.8833,2.8945,2.8955,2.881,2.8809,2.8808,0,2.8966,2.8971,2.8994,2.899,2.8963,2.8975,2.8965,2.8949,2.895,2.8946,2.8946,2.8944,2.8943,2.8942,2.8911,2.8884,2.8937,2.8893,2.8926,2.8927,2.894,2.8939,2.9054,2.8941,2.8941,2.894,2.894,0,2.9053,2.9078,2.9032,2.9047,2.9073,2.9035,2.9062,2.9047,2.9033,2.9044,2.9003,2.9014,2.8972,2.8979,2.8955,2.8977,2.8977,2.8965,2.8959,2.8969,2.897,2.897,2.8964,2.8943,2.8943,2.8942,2.8942,0,2.9155,2.9125,2.9147,2.912,2.9113,2.9134,2.9111,2.9123,2.9102,2.9115,2.9116,2.9084,2.9089,2.9058,2.9058,2.9041,2.9075,2.906,2.908,2.9075,2.911,2.9107,2.9227,2.9241,2.912,2.9121,2.9122,0,2.9213,2.923,2.9205,2.9209,2.92,2.9207,2.9207,2.917,2.9172,2.9158,2.9172,2.9173,2.9172,2.9183,2.9159,2.9158,2.9143,2.9185,2.9143,2.9153,2.9144,2.9143,2.9144,2.9195,2.9196,2.9197,2.9198,0,2.9318,2.9302,2.9303,2.93,2.9301,2.9297,2.929,2.9295,2.9255,2.926,2.9264,2.9263,2.9263,2.9265,2.9259,2.9248,2.9217,2.9212,2.9219,2.923,2.9241,2.9235,2.9104,2.9209,2.9208,2.9207,2.9207,2.9206,2.9398,2.9412,2.9396,2.9399,2.939,2.9384,2.9393,2.9373,2.9376,2.9373,2.9351,2.9359,2.9345,2.9334,2.9326,2.9332,2.9312,2.9323,2.9326,2.9329,2.9335,2.924,2.9331,2.9331,2.933,2.933,2.933,0,2.9501,2.9488,2.9491,2.9482,2.9485,2.9454,2.9445,2.9449,2.9457,2.9446,2.9446,2.9451,2.9452,2.9429,2.9427,2.9437,2.9422,2.9438,2.9437,2.9435,2.9353,2.9347,2.9449,2.9449,2.9449,2.9449,2.9449,2.9449,2.9555,2.9576,2.9558,2.9574,2.956,2.9568,2.9565,2.956,2.9551,2.9558,2.9559,2.9543,2.9527,2.9524,2.9524,2.9517,2.9519,2.9539,2.9527,2.9452,2.944,2.9429,2.9423,2.954,2.954,2.9608,2.9608,2.9609]}]]